Flag for U.S.A. Weather past 2 weeks in South Bend, Indiana, U.S.A.

Now
35 °F

Overcast.


Feels Like: 32 °F
Forecast: 16 / 31 °F
Wind: 3 mph from Southwest

Location: Michiana Regional Airport

Current Time: Jan 31, 2015 at 7:55:33 PM

Latest Report: Jan 31, 2015 at 6:54 PM


Visibility: 10 mi

Pressure: 30.22 "Hg

Humidity: 70%

Dew point: 26 °F

Location of South BendLocation

Historic Weather in South Bend — Graph

°F

South Bend temperature yesterday

Maximum temperature yesterday: 29 °F (at 12:54 AM)
Minimum temperature yesterday: 18 °F (at 7:54 PM)
Average temperature yesterday: 24 °F

Past Weeks' High & Low Weather Summary

 TemperatureHumidityPressure
High45 °F (Jan 17, 12:54 PM)96% (Jan 21, 6:54 AM)30.52 "Hg (Jan 21, 6:54 AM)
Low8 °F (Jan 26, 6:54 AM)38% (Jan 27, 2:54 PM)29.65 "Hg (Jan 24, 5:01 PM)
Average30 °F75%30.04 "Hg
* Reported Jan 16 5:54 PM — Jan 31 5:54 PM, South Bend, Weather by CustomWeather, © 2014

Note: Actual official high and low records may vary slightly from our data, if they occured in-between our weather recording intervals... More about our weather records

Advertising

South Bend weather history for previous 24 hours

 ConditionsComfort  
Time TempWeatherWind HumidityBarometerVisibility
5:54 PM
Jan 31
35 °FPartly sunny.5 mph70%30.21 "Hg10 mi
4:54 PM36 °FOvercast.6 mph67%30.22 "Hg10 mi
3:54 PM37 °FOvercast.10 mph62%30.21 "Hg10 mi
2:54 PM37 °FScattered clouds.10 mph60%30.21 "Hg10 mi
1:54 PM37 °FSunny.10 mph57%30.22 "Hg10 mi
12:54 PM35 °FSunny.12 mph61%30.24 "Hg10 mi
11:54 AM33 °FSunny.14 mph63%30.27 "Hg10 mi
9:54 AM28 °FSunny.13 mph72%30.30 "Hg10 mi
8:54 AM24 °FSunny.8 mph75%30.31 "Hg10 mi
7:54 AM22 °FClear.9 mph78%30.32 "Hg10 mi
6:54 AM21 °FClear.8 mph81%30.31 "Hg10 mi
5:54 AM21 °FPassing clouds.8 mph78%30.32 "Hg10 mi
3:54 AM18 °FClear.5 mph80%30.34 "Hg10 mi
2:54 AM16 °FClear.7 mph80%30.37 "Hg10 mi
1:54 AM17 °FClear.6 mph76%30.38 "Hg10 mi
12:54 AM16 °FClear.No wind77%30.41 "Hg10 mi
11:54 PM
Jan 30
19 °FClear.3 mph77%30.42 "Hg10 mi
10:54 PM18 °FPassing clouds.5 mph80%30.43 "Hg10 mi
9:54 PM19 °FClear.No wind77%30.45 "Hg10 mi
8:54 PM20 °FClear.No wind74%30.46 "Hg10 mi
7:54 PM18 °FClear.No wind77%30.47 "Hg10 mi
Weather by CustomWeather, © 2014

See weather overviewHow to use our weather pages